Back to catalog

XINGSHIDAI-15

AliveScienceSSO
NORAD 61231·PAYLOAD·🇨🇳 China
This satellite name has not been confirmed by official sources yet.

Launched Sep 24, 2024 from Yellow Sea Launch Area

Loading…

Next Passes (next 24 hours)

TLE

FreshSource: Space-Track

Epoch: Sep 14, 2026, 22:32 UTC

1 61231U 24173E   26257.93905748  .00001021  00000-0  51766-4 0  9990
2 61231  97.4123 328.4216 0001630  90.5514 269.5907 15.19160723109385

Track XINGSHIDAI-15 in real time with AllMySat

Download on the App Store